Cavalier, ND

8:58 AM CDT on October 17, 2017 (GMT -0500)
Cavalier

Weather History for K2C8 - July, 2013

Change the Weather History Date:

Tuesday, July 9, 2013

  Actual Average (KGAF) Record (KGAF)
Temperature  
Mean Temperature 66 °F -  
Max Temperature 75 °F 82 °F 98 °F (1983)
Min Temperature 57 °F 57 °F 40 °F (1968)
Cooling Degree Days 1    
Growing Degree Days 16 (Base 50)    
Moisture  
Dew Point 57 °F    
Average Humidity 78    
Maximum Humidity 94    
Minimum Humidity 56    
Precipitation  
Precipitation 0.20 in - - ()
Sea Level Pressure  
Sea Level Pressure 29.93 in    
Wind  
Wind Speed 10 mph (NNW)    
Max Wind Speed 18 mph    
Max Gust Speed 28 mph    
Visibility 9 miles    
Events Rain , Thunderstorm    
Averages and records for this station are not official NWS values.
T = Trace of Precipitation, MM = Missing Value Source: NWS Daily Summary

Daily Weather History Graph

Daily Weather History Graph

Search for Another Location

Airport or City:

Trip Planner

Search our weather history database for the weather conditions in past years. The results will help you decide how hot, cold, wet, or windy it might be!

Date:

Astronomy

Jul. 09, 2013 Rise Set
Actual Time 5:37 AM CDT 9:33 PM CDT
Civil Twilight 4:56 AM CDT 10:14 PM CDT
Nautical Twilight 3:59 AM CDT 11:11 PM CDT
Astronomical Twilight 2:26 AM CDT 12:41 AM CDT
Moon 7:15 AM CDT (7/9) 9:56 PM CDT (7/9)
Length of Visible Light 17h 17m
Length of Day
15h 55m
New Moon, 2% of the Moon is Illuminated
Jul 9
New Moon
Jul 15
First Quarter
Jul 22
Full
Jul 29
Last Quarter
Aug 6
New

Hourly Weather History & Observations

Time (CDT) Temp. Dew Point Humidity Pressure Visibility Wind Dir Wind Speed Gust Speed Precip Events Conditions
12:15 AM 75.2 °F 64.4 °F 69% 29.86 in 10.0 mi Calm Calm - N/A   Mostly Cloudy
12:35 AM 73.4 °F 64.4 °F 73% 29.86 in 10.0 mi NNW 6.9 mph - N/A   Scattered Clouds
12:55 AM 73.4 °F 62.6 °F 69% 29.87 in 10.0 mi NNW 11.5 mph - N/A   Scattered Clouds
1:15 AM 71.6 °F 64.4 °F 78% 29.86 in 10.0 mi North 11.5 mph - N/A   Scattered Clouds
1:35 AM 69.8 °F 64.4 °F 83% 29.85 in 10.0 mi North 10.4 mph - N/A   Partly Cloudy
1:55 AM 69.8 °F 64.4 °F 83% 29.86 in 10.0 mi North 10.4 mph - N/A   Scattered Clouds
2:15 AM 68.0 °F 64.4 °F 88% 29.84 in 10.0 mi North 10.4 mph - N/A   Partly Cloudy
2:35 AM 68.0 °F 62.6 °F 83% 29.85 in 10.0 mi North 9.2 mph - N/A   Partly Cloudy
2:55 AM 68.0 °F 62.6 °F 83% 29.85 in 10.0 mi North 10.4 mph - N/A Thunderstorm Mostly Cloudy
3:15 AM 66.2 °F 62.6 °F 88% 29.88 in 2.5 mi NW 12.7 mph 24.2 mph 0.07 in Rain , Thunderstorm Heavy Rain
3:35 AM 64.4 °F 62.6 °F 94% 29.88 in 5.0 mi WNW 8.1 mph - 0.09 in Rain Light Rain
3:55 AM 64.4 °F 62.6 °F 94% 29.88 in 4.0 mi NW 6.9 mph - 0.11 in Rain Light Rain
4:15 AM 64.4 °F 62.6 °F 94% 29.86 in 4.0 mi North 6.9 mph - 0.01 in Rain Light Rain
4:35 AM 64.4 °F 62.6 °F 94% 29.82 in 5.0 mi North 12.7 mph 17.3 mph 0.03 in Rain Light Rain
4:55 AM 62.6 °F 59.0 °F 88% 29.82 in 5.0 mi North 15.0 mph 23.0 mph 0.04 in Rain Light Rain
5:15 AM 60.8 °F 57.2 °F 88% 29.83 in 10.0 mi North 17.3 mph 25.3 mph N/A Rain Light Rain
5:35 AM 59.0 °F 57.2 °F 94% 29.83 in 8.0 mi North 17.3 mph 24.2 mph N/A Rain Light Rain
5:55 AM 59.0 °F 57.2 °F 94% 29.82 in 10.0 mi North 18.4 mph 27.6 mph N/A Rain Light Rain
6:15 AM 59.0 °F 55.4 °F 88% 29.84 in 10.0 mi North 15.0 mph 20.7 mph N/A   Mostly Cloudy
6:35 AM 59.0 °F 55.4 °F 88% 29.85 in 10.0 mi NNE 15.0 mph 20.7 mph N/A   Mostly Cloudy
6:55 AM 59.0 °F 55.4 °F 88% 29.88 in 6.0 mi North 8.1 mph - N/A Rain Light Rain
7:15 AM 57.2 °F 55.4 °F 94% 29.88 in 4.0 mi North 3.5 mph - 0.01 in Rain Light Rain
7:35 AM 57.2 °F 55.4 °F 94% 29.88 in 5.0 mi NNE 8.1 mph - 0.01 in Rain Light Rain
7:55 AM 59.0 °F 55.4 °F 88% 29.88 in 10.0 mi North 4.6 mph - 0.01 in Rain Light Rain
8:15 AM 59.0 °F 57.2 °F 94% 29.89 in 10.0 mi NNW 15.0 mph - N/A   Mostly Cloudy
8:35 AM 57.2 °F 55.4 °F 94% 29.90 in 10.0 mi North 15.0 mph - N/A   Mostly Cloudy
8:55 AM 57.2 °F 55.4 °F 94% 29.90 in 10.0 mi North 13.8 mph 18.4 mph N/A   Overcast
9:15 AM 59.0 °F 55.4 °F 88% 29.90 in 10.0 mi North 12.7 mph 19.6 mph N/A   Overcast
9:35 AM 59.0 °F 55.4 °F 88% 29.91 in 10.0 mi North 16.1 mph 19.6 mph N/A   Overcast
9:55 AM 60.8 °F 55.4 °F 82% 29.91 in 10.0 mi North 15.0 mph - N/A   Mostly Cloudy
10:15 AM 60.8 °F 55.4 °F 82% 29.91 in 10.0 mi North 11.5 mph 17.3 mph N/A   Mostly Cloudy
10:35 AM 62.6 °F 55.4 °F 77% 29.91 in 10.0 mi North 11.5 mph 16.1 mph N/A   Overcast
10:55 AM 64.4 °F 53.6 °F 68% 29.92 in 10.0 mi North 11.5 mph 16.1 mph N/A   Mostly Cloudy
11:15 AM 64.4 °F 53.6 °F 68% 29.92 in 10.0 mi North 13.8 mph 21.9 mph N/A   Scattered Clouds
11:35 AM 64.4 °F 55.4 °F 73% 29.94 in 10.0 mi North 15.0 mph 20.7 mph N/A   Scattered Clouds
11:55 AM 64.4 °F 57.2 °F 77% 29.95 in 10.0 mi North 11.5 mph 18.4 mph N/A   Mostly Cloudy
12:15 PM 66.2 °F 57.2 °F 73% 29.96 in 10.0 mi North 11.5 mph 19.6 mph N/A   Mostly Cloudy
12:35 PM 66.2 °F 57.2 °F 73% 29.97 in 10.0 mi NNW 15.0 mph 21.9 mph N/A   Mostly Cloudy
12:55 PM 66.2 °F 55.4 °F 68% 29.96 in 10.0 mi NNW 16.1 mph 19.6 mph N/A   Mostly Cloudy
1:15 PM 66.2 °F 55.4 °F 68% 29.96 in 10.0 mi NNW 13.8 mph 19.6 mph N/A   Mostly Cloudy
1:35 PM 64.4 °F 55.4 °F 73% 29.96 in 3.0 mi NNW 10.4 mph - N/A Rain Light Rain
1:55 PM 64.4 °F 57.2 °F 77% 29.97 in 5.0 mi NNW 12.7 mph - 0.04 in Rain Light Rain
2:15 PM 64.4 °F 55.4 °F 73% 29.95 in 10.0 mi North 10.4 mph - N/A   Mostly Cloudy
2:35 PM 66.2 °F 57.2 °F 73% 29.96 in 9.0 mi NNW 8.1 mph - N/A   Mostly Cloudy
2:55 PM 66.2 °F 55.4 °F 68% 29.96 in 10.0 mi North 10.4 mph - N/A   Mostly Cloudy
3:15 PM 66.2 °F 57.2 °F 73% 29.96 in 10.0 mi NNW 9.2 mph - N/A   Overcast
3:35 PM 66.2 °F 57.2 °F 73% 29.96 in 9.0 mi North 10.4 mph - N/A   Mostly Cloudy
3:55 PM 68.0 °F 55.4 °F 64% 29.95 in 10.0 mi NNW 12.7 mph - N/A   Mostly Cloudy
4:15 PM 68.0 °F 55.4 °F 64% 29.96 in 10.0 mi NNW 13.8 mph - N/A   Scattered Clouds
4:35 PM 68.0 °F 55.4 °F 64% 29.96 in 10.0 mi NNW 9.2 mph - N/A   Mostly Cloudy
4:55 PM 66.2 °F 55.4 °F 68% 29.97 in 10.0 mi NNW 10.4 mph 17.3 mph N/A   Overcast
5:15 PM 68.0 °F 55.4 °F 64% 29.97 in 9.0 mi NW 9.2 mph - N/A   Mostly Cloudy
5:35 PM 68.0 °F 55.4 °F 64% 29.97 in 10.0 mi NW 12.7 mph 17.3 mph N/A   Mostly Cloudy
5:55 PM 66.2 °F 53.6 °F 64% 29.98 in 9.0 mi NW 11.5 mph - N/A   Scattered Clouds
6:15 PM 66.2 °F 55.4 °F 68% 29.98 in 10.0 mi NW 9.2 mph - N/A   Mostly Cloudy
6:35 PM 66.2 °F 53.6 °F 64% 29.98 in 9.0 mi NW 8.1 mph - N/A   Mostly Cloudy
6:55 PM 68.0 °F 55.4 °F 64% 29.98 in 10.0 mi NW 9.2 mph - N/A   Scattered Clouds
7:15 PM 68.0 °F 57.2 °F 68% 29.98 in 10.0 mi NNW 12.7 mph - N/A   Partly Cloudy
7:35 PM 68.0 °F 51.8 °F 56% 29.98 in 8.0 mi NNW 11.5 mph 17.3 mph N/A   Clear
7:55 PM 66.2 °F 53.6 °F 64% 29.98 in 8.0 mi NW 8.1 mph - N/A   Clear
8:15 PM 66.2 °F 55.4 °F 68% 29.98 in 9.0 mi NW 9.2 mph - N/A   Clear
8:35 PM 66.2 °F 55.4 °F 68% 29.99 in 8.0 mi WNW 8.1 mph - N/A   Clear
8:55 PM 64.4 °F 55.4 °F 73% 29.99 in 9.0 mi West 6.9 mph - N/A   Clear
9:15 PM 64.4 °F 55.4 °F 73% 29.99 in 8.0 mi West 6.9 mph - N/A   Clear
9:35 PM 62.6 °F 57.2 °F 82% 29.99 in 8.0 mi West 6.9 mph - N/A   Clear
9:55 PM 60.8 °F 55.4 °F 82% 30.00 in 8.0 mi West 6.9 mph - N/A   Clear
10:15 PM 60.8 °F 55.4 °F 82% 30.01 in 10.0 mi West 5.8 mph - N/A   Clear
10:35 PM 60.8 °F 55.4 °F 82% 30.01 in 8.0 mi West 6.9 mph - N/A   Clear
10:55 PM 60.8 °F 55.4 °F 82% 30.01 in 8.0 mi West 8.1 mph - N/A   Clear
11:15 PM 60.8 °F 55.4 °F 82% 30.01 in 7.0 mi West 10.4 mph - N/A   Clear
11:35 PM 60.8 °F 55.4 °F 82% 30.01 in 7.0 mi West 9.2 mph - N/A   Clear
11:55 PM 62.6 °F 55.4 °F 77% 30.01 in 7.0 mi West 11.5 mph - N/A   Clear